Location: Mactaquac Provincial Park
(45.9573°N, 66.8897°W)
Time: 05:51:43
(UTC-03:00)

CENTAUR R/B - Visible Passes

Search period start: 24 June 2017 00:00
Search period end: 04 July 2017 00:00
Orbit: 830 x 1359 km, 63.5° (Epoch: 30 May)

Date Brightness Start Highest point End Pass type
(mag) Time Alt. Az. Time Alt. Az. Time Alt. Az.
24 Jun 4.6 04:31:03 10° SSE 04:35:10 19° ESE 04:39:36 10° ENE visible
26 Jun 3.7 04:43:13 10° S 04:48:42 37° ESE 04:54:49 10° NE visible
27 Jun 4.3 03:56:29 10° SSE 04:00:58 22° ESE 04:05:50 10° ENE visible
28 Jun 4.7 03:11:21 10° ESE 03:13:24 12° ESE 03:15:32 10° E visible
28 Jun 2.8 04:56:30 10° SSW 05:02:31 69° ESE 05:09:25 10° NE visible
29 Jun 3.4 04:09:02 11° S 04:14:32 42° ESE 04:20:53 10° NE visible
30 Jun 4.1 03:22:26 12° SSE 03:26:46 25° ESE 03:32:01 10° ENE visible
01 Jul 4.5 02:36:14 10° SE 02:39:11 14° ESE 02:42:16 10° ENE visible
01 Jul 2.7 04:22:58 13° SSW 04:28:25 77° SE 04:35:24 10° NE visible
02 Jul 3.1 03:36:17 19° S 03:40:24 47° ESE 03:46:55 10° NE visible
03 Jul 3.8 02:49:34 19° SSE 02:52:35 28° ESE 02:58:10 10° NE visible
03 Jul 2.9 04:36:44 11° SW 04:42:39 64° NW 04:49:42 10° NE visible
